Location: �chenoz-la-M�line
(47.6009°N, 6.1354°E)
Time: 12:56:15
(UTC+00:00)

FALCON 9 DEB - Pass Details

Date: 27 January 2021
Orbit: 372 x 386 km, 53.0° (Epoch: 03 March)

Event Time Altitude Azimuth Distance (km) Brightness Sun altitude
Exits shadow 06:14:19 - 251° (WSW) 1,479 5.3 -9.2°
Reaches altitude 10° 06:14:33 10° 251° (WSW) 1,386 5.2 -9.2°
Maximum altitude 06:17:37 67° 334° (NNW) 410 2.8 -8.7°
Drops below altitude 10° 06:20:42 10° 59° (ENE) 1,384 6.3 -8.2°
Sets 06:22:47 0° 62° (ENE) 2,247 7.5 -7.9°
